When you browse on this site, cookies collect data to enhance your experience and personalize the content and advertising you see.
Visit our Privacy Policy to learn more. By continuing to use the site, you agree to this use of cookies and data.
  • In Switzerland
  • List of Countries
  • For 7 days
  • Water Temperature
  • Satellite Maps
  • Weather Map
  • Weather Widgets
  • user-avatar
    Login

    Hourly Weather Krasnyy Kolos

    Today, 24 January, Thursday

    Time Temperature Precipitation Wind Pressure Humidity
    00:00 -5°C° 0.1 mm 6 mps 752 mmHg 81%
    01:00 -5°C° 0 mm 6 mps 751 mmHg 82%
    02:00 -5°C° 0 mm 6 mps 751 mmHg 84%
    03:00 -4°C° 0 mm 4 mps 751 mmHg 89%
    04:00 -4°C° 0.3 mm 4 mps 751 mmHg 90%
    05:00 -3°C° 0.3 mm 4 mps 750 mmHg 91%
    06:00 -4°C° 0.3 mm 5 mps 750 mmHg 92%
    07:00 -4°C° 0.2 mm 5 mps 750 mmHg 91%
    08:00 -3°C° 0.2 mm 4 mps 750 mmHg 91%
    09:00 -3°C° 0.2 mm 4 mps 750 mmHg 90%
    10:00 -2°C° 0.1 mm 4 mps 749 mmHg 91%
    11:00 -2°C° 0.1 mm 4 mps 749 mmHg 92%
    12:00 -1°C° 0.1 mm 4 mps 749 mmHg 93%
    13:00 0°C° 0 mm 3 mps 749 mmHg 94%
    14:00 0°C° 0 mm 3 mps 748 mmHg 95%
    15:00 +2°C° 0 mm 2 mps 748 mmHg 96%
    16:00 +1°C° 0 mm 2 mps 748 mmHg 92%
    17:00 +1°C° 0 mm 2 mps 748 mmHg 87%
    18:00 -1°C° 0 mm 2 mps 748 mmHg 83%
    19:00 -1°C° 0 mm 2 mps 748 mmHg 83%
    20:00 +1°C° 0 mm 1 mps 748 mmHg 82%
    21:00 +2°C° 0 mm 1 mps 748 mmHg 82%
    22:00 +2°C° 0 mm 1 mps 748 mmHg 82%
    23:00 +1°C° 0 mm 1 mps 748 mmHg 81%

    Tomorrow, 25 January, Friday

    Time Temperature Precipitation Wind Pressure Humidity
    00:00 0°C° 0 mm 0 mps 748 mmHg 80%
    01:00 +1°C° 0 mm 1 mps 748 mmHg 81%
    02:00 -1°C° 0 mm 2 mps 749 mmHg 82%
    03:00 -1°C° 0 mm 2 mps 749 mmHg 83%
    04:00 -1°C° 0 mm 2 mps 749 mmHg 85%
    05:00 -1°C° 0 mm 3 mps 749 mmHg 87%
    06:00 -1°C° 0 mm 3 mps 749 mmHg 90%
    07:00 -1°C° 0 mm 3 mps 750 mmHg 91%
    08:00 -1°C° 0 mm 4 mps 750 mmHg 93%
    09:00 -1°C° 0 mm 4 mps 751 mmHg 94%
    10:00 -1°C° 0 mm 5 mps 751 mmHg 95%
    11:00 -1°C° 0 mm 5 mps 752 mmHg 97%
    12:00 -1°C° 0 mm 5 mps 752 mmHg 98%
    13:00 -1°C° 0 mm 5 mps 753 mmHg 98%
    14:00 -1°C° 0 mm 5 mps 753 mmHg 97%
    15:00 -1°C° 0 mm 5 mps 753 mmHg 97%
    16:00 -1°C° 0.1 mm 5 mps 753 mmHg 96%
    17:00 -1°C° 0.1 mm 5 mps 754 mmHg 95%
    18:00 -1°C° 0.1 mm 5 mps 754 mmHg 94%
    19:00 -2°C° 0.3 mm 6 mps 754 mmHg 93%
    20:00 -3°C° 0.3 mm 6 mps 754 mmHg 93%
    21:00 -3°C° 0.3 mm 6 mps 754 mmHg 93%
    22:00 -3°C° 0 mm 6 mps 754 mmHg 93%
    23:00 -3°C° 0 mm 6 mps 754 mmHg 93%

    Day after tomorrow, 26 January, Saturday

    Time Temperature Precipitation Wind Pressure Humidity
    00:00 -3°C° 0 mm 6 mps 754 mmHg 93%
    01:00 -3°C° 0 mm 6 mps 754 mmHg 93%
    02:00 -3°C° 0 mm 6 mps 754 mmHg 92%
    03:00 -3°C° 0 mm 6 mps 754 mmHg 92%
    04:00 -3°C° 0 mm 6 mps 754 mmHg 92%
    05:00 -3°C° 0 mm 6 mps 753 mmHg 92%
    06:00 -3°C° 0 mm 6 mps 753 mmHg 92%
    07:00 -2°C° 0.1 mm 6 mps 753 mmHg 92%
    08:00 -2°C° 0.1 mm 6 mps 752 mmHg 93%
    09:00 -2°C° 0.1 mm 7 mps 752 mmHg 93%
    10:00 -2°C° 0.1 mm 6 mps 752 mmHg 93%
    11:00 -2°C° 0.1 mm 6 mps 752 mmHg 94%
    12:00 -2°C° 0.1 mm 6 mps 751 mmHg 95%
    13:00 -2°C° 0 mm 6 mps 751 mmHg 95%
    14:00 -1°C° 0 mm 6 mps 750 mmHg 95%
    15:00 -1°C° 0 mm 6 mps 750 mmHg 94%
    16:00 -1°C° 0 mm 6 mps 750 mmHg 94%
    17:00 -1°C° 0 mm 6 mps 749 mmHg 93%
    18:00 -1°C° 0 mm 6 mps 749 mmHg 92%
    19:00 -2°C° 0.2 mm 6 mps 749 mmHg 92%
    20:00 -2°C° 0.2 mm 6 mps 749 mmHg 92%
    21:00 -2°C° 0.2 mm 6 mps 748 mmHg 92%
    22:00 -1°C° 0.2 mm 5 mps 748 mmHg 93%
    23:00 -1°C° 0.2 mm 5 mps 748 mmHg 93%

    27 January, Sunday

    Time Temperature Precipitation Wind Pressure Humidity
    00:00 -1°C° 0.2 mm 5 mps 747 mmHg 94%
    01:00 -1°C° 0.5 mm 5 mps 747 mmHg 94%
    02:00 -1°C° 0.5 mm 5 mps 746 mmHg 94%
    03:00 -1°C° 0.5 mm 5 mps 746 mmHg 94%
    04:00 -1°C° 0.6 mm 5 mps 745 mmHg 95%
    05:00 -1°C° 0.6 mm 5 mps 745 mmHg 95%
    06:00 -1°C° 0.6 mm 5 mps 744 mmHg 96%
    07:00 -1°C° 0.2 mm 5 mps 744 mmHg 94%
    08:00 -1°C° 0.2 mm 5 mps 744 mmHg 93%
    09:00 -2°C° 0.2 mm 6 mps 744 mmHg 92%
    10:00 -1°C° 0.8 mm 5 mps 744 mmHg 93%
    11:00 0°C° 0.8 mm 5 mps 743 mmHg 94%
    12:00 0°C° 0.8 mm 5 mps 743 mmHg 95%
    13:00 +1°C° 0.4 mm 4 mps 743 mmHg 95%
    14:00 +3°C° 0.4 mm 4 mps 742 mmHg 95%
    15:00 +3°C° 0.4 mm 3 mps 742 mmHg 96%
    16:00 +3°C° 0.1 mm 3 mps 742 mmHg 96%
    17:00 +3°C° 0.1 mm 3 mps 742 mmHg 96%
    18:00 +3°C° 0.1 mm 3 mps 742 mmHg 96%
    19:00 +2°C° 0.9 mm 3 mps 742 mmHg 95%
    20:00 0°C° 0.9 mm 4 mps 743 mmHg 93%
    21:00 -1°C° 0.9 mm 5 mps 743 mmHg 92%
    22:00 -2°C° 0 mm 5 mps 744 mmHg 90%
    23:00 -2°C° 0 mm 5 mps 745 mmHg 89%

    28 January, Monday

    Time Temperature Precipitation Wind Pressure Humidity
    00:00 -4°C° 0 mm 5 mps 746 mmHg 87%
    01:00 -5°C° 0 mm 5 mps 747 mmHg 86%
    02:00 -5°C° 0 mm 5 mps 747 mmHg 85%
    03:00 -6°C° 0 mm 5 mps 748 mmHg 83%
    04:00 -6°C° 0 mm 5 mps 748 mmHg 83%
    05:00 -6°C° 0 mm 5 mps 749 mmHg 82%
    06:00 -6°C° 0 mm 5 mps 749 mmHg 81%
    07:00 -7°C° 0 mm 5 mps 750 mmHg 80%
    08:00 -7°C° 0 mm 5 mps 750 mmHg 79%
    09:00 -7°C° 0 mm 5 mps 751 mmHg 77%
    10:00 -5°C° 0 mm 4 mps 751 mmHg 76%
    11:00 -5°C° 0 mm 4 mps 752 mmHg 75%
    12:00 -4°C° 0 mm 4 mps 752 mmHg 73%
    13:00 -4°C° 0 mm 3 mps 752 mmHg 74%
    14:00 -4°C° 0 mm 3 mps 752 mmHg 74%
    15:00 -4°C° 0 mm 3 mps 752 mmHg 74%
    16:00 -3°C° 0 mm 2 mps 752 mmHg 76%
    17:00 -4°C° 0 mm 2 mps 752 mmHg 79%
    18:00 -3°C° 0 mm 1 mps 753 mmHg 82%
    19:00 -3°C° 0 mm 1 mps 753 mmHg 82%
    20:00 -3°C° 0 mm 1 mps 753 mmHg 82%
    21:00 -3°C° 0 mm 1 mps 753 mmHg 82%
    22:00 -3°C° 0 mm 1 mps 753 mmHg 82%
    23:00 -3°C° 0 mm 1 mps 753 mmHg 82%

    29 January, Tuesday

    Time Temperature Precipitation Wind Pressure Humidity
    00:00 -3°C° 0 mm 1 mps 754 mmHg 81%
    01:00 -3°C° 0 mm 1 mps 754 mmHg 81%
    02:00 -3°C° 0 mm 1 mps 754 mmHg 81%
    03:00 -3°C° 0 mm 1 mps 754 mmHg 81%
    04:00 -3°C° 0 mm 1 mps 753 mmHg 82%
    05:00 -5°C° 0 mm 2 mps 753 mmHg 82%
    06:00 -5°C° 0 mm 2 mps 753 mmHg 82%
    07:00 -4°C° 0 mm 2 mps 753 mmHg 81%
    08:00 -5°C° 0 mm 3 mps 753 mmHg 81%
    09:00 -5°C° 0 mm 3 mps 754 mmHg 80%
    10:00 -4°C° 0 mm 3 mps 754 mmHg 78%
    11:00 -2°C° 0 mm 3 mps 754 mmHg 75%
    12:00 -1°C° 0 mm 3 mps 754 mmHg 73%
    13:00 0°C° 0 mm 3 mps 754 mmHg 73%
    14:00 0°C° 0 mm 3 mps 753 mmHg 73%
    15:00 +2°C° 0 mm 2 mps 753 mmHg 73%
    16:00 +1°C° 0 mm 2 mps 753 mmHg 77%
    17:00 +1°C° 0 mm 2 mps 753 mmHg 80%
    18:00 -1°C° 0 mm 2 mps 753 mmHg 83%
    19:00 0°C° 0 mm 3 mps 753 mmHg 85%
    20:00 0°C° 0 mm 3 mps 753 mmHg 88%
    21:00 0°C° 0 mm 3 mps 753 mmHg 90%
    22:00 +1°C° 0 mm 3 mps 754 mmHg 91%
    23:00 +1°C° 0 mm 3 mps 754 mmHg 92%
    Show more